User: anonymous   Login
Location: Bishop's University Astronomical Observatory
(45.3661°N, 71.8475°W)
Time: 17:05:19
(UTC-04:00)
Language:

Meteor 2-5 Rocket - Orbit

View from above orbital plane
View from above orbital plane
View from above satellite
View from above satellite

Ground track
Ground track

The orbit data is extracted from the following two-line orbital elements,

1 11608U 79095B   17113.94611269 +.00000214 +00000-0 +12136-3 0  9990
2 11608 081.2125 263.6395 0054006 315.4066 044.2763 14.06113941922202
Epoch (UTC): 23 April 2017 22:42:24
Eccentricity: 0.0054006
inclination: 81.2125°
perigee height: 833 km
apogee height: 912 km
right ascension of ascending node: 263.6395°
argument of perigee: 315.4066°
revolutions per day: 14.06113941
mean anomaly at epoch: 44.2763°
orbit number at epoch: 92220

The dashed part of the orbit path shows where the satellite is in the earth's shadow,  

DLR